Location: Lake Arresoe
(56.0000°N, 12.5000°E)
Time: 16:29:23
(UTC+02:00)

Resurs 1-4 Rocket - Pass Details

Date: 31 July 2021
Orbit: 799 x 814 km, 98.6° (Epoch: 27 September)

Event Time Altitude Azimuth Distance (km) Brightness Sun altitude
Rises 02:59:08 0° 16° (NNE) 3,350 7.3 -12.7°
Reaches altitude 10° 03:01:29 10° 18° (NNE) 2,412 6.1 -12.5°
Maximum altitude 03:06:51 80° 106° (ESE) 829 2.2 -12.2°
Enters shadow 03:11:15 15° 193° (SSW) 2,040 3.6 -11.9°
